Miscellaneous Local Product
Issued by NWS North Platte, NE

Home | Current Version | Previous Version | Graphics & Text | Print | Product List | Glossary On
Versions: 1 2 3 4 5 6 7 8 9 10 11 12 13 14 15 16 17 18 19 20 21 22 23 24 25 26 27 28 29 30 31 32 33 34 35 36 37 38 39 40 41 42 43 44 45 46 47 48 49 50
000
AXUS43 KLBF 041410
MISLBF


WESTERN AND NORTH CENTRAL NEBRASKA HOURLY WEATHER ROUNDUP
NATIONAL WEATHER SERVICE NORTH PLATTE NE
800 AM CST WED MAR 04 2015

***STATIONS NOT REPORTING VARIABLES SUCH AS SKY/WEATHER OR
PRESSURE ARE PROVIDED BY THE NEBRASKA DEPARTMENT OF
ROADS...RAWS...AND APRS NETWORKS...AND ARE NOT UNDER
NATIONAL WEATHER SERVICE QUALITY CONTROL***

...OBSERVATIONS IN AND NEAR THE EASTERN PANHANDLE OF NEBRASKA...

CITY           SKY/WX    TMP DP  RH WIND       PRES   REMARKS
PINE RIDGE     PTCLDY    -3  -9  75 W6        30.15R WCI -15
CHADRON        CLEAR     -4 -11  72 W9        30.18R WCI -20
ALLIANCE       PTCLDY    -1  -7  75 SW10      30.14R WCI -17
SIDNEY         CLOUDY     8   2  76 W9        30.14R WCI  -5
WHITECLAY        N/A     -5 -13  68 CALM        N/A
CRESCENT LAKE    N/A      6  -4  63 W7          N/A  WCI  -6
LISCO            N/A     14   6  72 W5          N/A  WCI   6
BIG SPRINGS      N/A      3   0  85 SW5         N/A  WCI  -6
LEWELLEN         N/A      6  -1  74 NW3         N/A
$$

...OBSERVATIONS IN NORTH CENTRAL NEBRASKA...

CITY           SKY/WX    TMP DP  RH WIND       PRES   REMARKS
VALENTINE      CLEAR      3  -3  76 W10       30.20R WCI -12
THEDFORD       PTCLDY     8   3  78 W9        30.19R WCI  -5
AINSWORTH      CLEAR      9   2  73 NW8       30.19R WCI  -3
O`NEILL        CLEAR     13   5  71 W9        30.22R WCI   0
ORD            CLEAR     11   2  67 NW5       30.23R WCI   3
BROKEN BOW     PTCLDY    11   4  73 W9        30.21R WCI  -2
BROWNLEE         N/A      5  -2  73 W9          N/A  WCI  -9
SPRINGVIEW       N/A      7   1  76 W3          N/A
BREWSTER         N/A     14   8  76 W7          N/A  WCI   4
ROSE             N/A     17  12  80 S3          N/A
NEWPORT          N/A     19  11  72 W12         N/A  WCI   7
SARGENT          N/A     13   8  80 W3          N/A
COMSTOCK         N/A     12   6  79 W7          N/A  WCI   1
CHAMBERS         N/A     12  -4  49 W6          N/A  WCI   3
EWING            N/A     13   7  75 W7          N/A  WCI   3
$$

...OBSERVATIONS IN SOUTHWEST NEBRASKA AND FAR NORTHEAST COLORADO...

CITY           SKY/WX    TMP DP  RH WIND       PRES   REMARKS
WRAY           CLOUDY    14  11  87 NW6       30.19R WCI   5
IMPERIAL         N/A     13   7  77 NW7       30.21R WCI   3
OGALLALA       PTCLDY     6   1  80 CALM      30.20R
NORTH PLATTE   PTCLDY     9   5  84 NW3       30.22R
MCCOOK         CLOUDY    16  11  80 NW7       30.24R WCI   6
LEXINGTON      PTCLDY    13   9  84 NW10      30.24R WCI   0
PAXTON           N/A     10   7  87 CALM        N/A
BRADY            N/A      8   4  85 CALM        N/A
GOTHENBURG       N/A      9   6  86 W3          N/A
CALLAWAY         N/A     10   6  82 W5          N/A  WCI   2
$$

...NORTH PLATTE AREA...

CITY           SKY/WX    TMP DP  RH WIND       PRES   REMARKS
AIRPORT        PTCLDY     9   5  84 NW3       30.22R
DOWNTOWN         N/A     12   9  87 CALM        N/A
$$

...SOME WEATHER OBSERVATIONS FROM AROUND THE REGION...

CITY           SKY/WX    TMP DP  RH WIND       PRES   REMARKS
DENVER         LGT SNOW  10   7  87 NE8       30.10R FOG     WCI  -2
LARAMIE        MOCLDY    -8 -10  91 S5        29.94R WCI -19
CHEYENNE       MOCLDY     1  -4  79 SW7       30.02R WCI -12
SCOTTSBLUFF    PTCLDY     7   2  80 NW5       30.15R WCI  -2
RAPID CITY     CLEAR      2  -4  76 N10       30.14R WCI -14
PIERRE         CLEAR      5  -4  66 NW17      30.22R WCI -14
WINNER         FAIR       5  -7  57 NW10      30.23R WCI -10
SIOUX FALLS    PTCLDY     3  -2  79 W5        30.18R WCI  -6
OMAHA          MOSUNNY   18   8  65 N3        30.28R
GRAND ISLAND   MOCLDY    13   8  81 W8        30.26R WCI   2
KANSAS CITY    PTSUNNY   19   9  65 N14       30.25R WCI   6
WICHITA        LGT SNOW  20  14  77 N21G28    30.23R WCI   4
HAYS           CLOUDY    18   7  62 N14       30.25S WCI   4
LIBERAL        CLOUDY    19  12  73 N17       30.17R WCI   4
GOODLAND       CLOUDY    15  11  83 N8        30.17R WCI   4
$$



USA.gov is the U.S. government's official web portal to all federal, state and local government web resources and services.